Flag for South Africa Weather past 2 weeks in Rustenburg, South Africa

Now
41 °F

Clear.


Feels Like: 41 °F
Forecast: 36 / 76 °F
Wind: No wind

Location: Lanseria Civ / Mil

Current Time: Jul 23, 2014 at 6:00:38 AM

Latest Report: Jul 23, 2014 at 5:00 AM


Visibility: 10 mi

Pressure: 30.33 "Hg

Humidity: 81%

Dew point: 36 °F

Location of RustenburgLocation

Historic Weather in Rustenburg — Graph

°F

Rustenburg temperature yesterday

Maximum temperature yesterday: 66 °F (at 2:00 PM)
Minimum temperature yesterday: 37 °F (at 6:00 AM)
Average temperature yesterday: 51 °F

Past Weeks' High & Low Weather Summary

 TemperatureHumidityPressure
High73 °F (Jul 18, 2:00 PM)93% (Jul 15, 7:00 AM)30.60 "Hg (Jul 15, 7:00 AM)
Low28 °F (Jul 12, 7:00 AM)7% (Jul 8, 4:00 PM)30.07 "Hg (Jul 18, 3:00 PM)
Average50 °F42%30.39 "Hg
* Reported Jul 8 4:00 AM — Jul 23 4:00 AM, Rustenburg, Weather by CustomWeather, © 2014

Note: Actual official high and low records may vary slightly from our data, if they occured in-between our weather recording intervals... More about our weather records

Advertising

Rustenburg weather history for previous 24 hours

 ConditionsComfort  
Time TempWeatherWind HumidityBarometerVisibility
4:00 AM
Jul 23
41 °FQuite cool.5 mph81%30.33 "HgN/A
3:00 AM41 °FQuite cool.No wind81%30.33 "HgN/A
2:00 AM41 °FQuite cool.No wind81%30.36 "HgN/A
7:00 PM
Jul 22
55 °FClear.6 mph47%30.36 "Hg10 mi
6:00 PM57 °FClear.7 mph44%30.33 "Hg10 mi
5:00 PM63 °FClear.12 mph37%30.33 "Hg10 mi
4:00 PM64 °FSunny.14 mph34%30.33 "Hg10 mi
3:00 PM64 °FPassing clouds.10 mph34%30.36 "HgN/A
2:00 PM66 °FPassing clouds.12 mph32%30.36 "HgN/A
1:00 PM64 °FPassing clouds.9 mph34%30.39 "HgN/A
12:00 PM63 °FSunny.6 mph42%30.42 "Hg10 mi
11:00 AM59 °FClear.5 mph48%30.48 "Hg6 mi
10:00 AM57 °FClear.No wind48%30.51 "Hg5 mi
9:00 AM48 °FClear.No wind62%30.51 "Hg5 mi
8:00 AM39 °FSunny.No wind81%30.48 "Hg10 mi
7:00 AM39 °FSunny.No wind81%30.48 "Hg10 mi
6:00 AM37 °FSunny.No wind81%30.48 "Hg10 mi
Weather by CustomWeather, © 2014

See weather overviewHow to use our weather pages